When you browse on this site, cookies collect data to enhance your experience and personalize the content and advertising you see.
Visit our Privacy Policy to learn more. By continuing to use the site, you agree to this use of cookies and data.
  • In Netherlands
  • List of Countries
  • For 7 days
  • Water Temperature
  • Satellite Maps
  • Weather Map
  • Weather Widgets
  • user-avatar
    Login

    Hourly Weather Amstelveen

    Today, 16 January, Wednesday

    Time Temperature Precipitation Wind Pressure Humidity
    00:00 +8°C° 0.1 mm 7 mps 759 mmHg 84%
    01:00 +8°C° 0.1 mm 6 mps 759 mmHg 85%
    02:00 +8°C° 0.1 mm 6 mps 758 mmHg 86%
    03:00 +8°C° 0.1 mm 6 mps 758 mmHg 87%
    04:00 +8°C° 0.2 mm 6 mps 757 mmHg 87%
    05:00 +8°C° 0.2 mm 6 mps 757 mmHg 87%
    06:00 +8°C° 0.2 mm 7 mps 756 mmHg 87%
    07:00 +6°C° 0.2 mm 7 mps 756 mmHg 86%
    08:00 +6°C° 0.2 mm 7 mps 756 mmHg 84%
    09:00 +5°C° 0.2 mm 8 mps 755 mmHg 82%
    10:00 +5°C° 0 mm 8 mps 755 mmHg 81%
    11:00 +5°C° 0 mm 8 mps 754 mmHg 80%
    12:00 +5°C° 0 mm 7 mps 754 mmHg 78%
    13:00 +5°C° 0.1 mm 8 mps 753 mmHg 79%
    14:00 +5°C° 0.1 mm 8 mps 752 mmHg 80%
    15:00 +5°C° 0.1 mm 8 mps 751 mmHg 81%
    16:00 +5°C° 0.1 mm 8 mps 750 mmHg 81%
    17:00 +5°C° 0.1 mm 8 mps 750 mmHg 81%
    18:00 +5°C° 0.1 mm 8 mps 749 mmHg 82%
    19:00 +5°C° 0.9 mm 8 mps 749 mmHg 82%
    20:00 +5°C° 0.9 mm 7 mps 749 mmHg 82%
    21:00 +5°C° 0.9 mm 6 mps 749 mmHg 82%
    22:00 +5°C° 0.2 mm 6 mps 750 mmHg 79%
    23:00 +4°C° 0.2 mm 6 mps 750 mmHg 76%

    Tomorrow, 17 January, Thursday

    Time Temperature Precipitation Wind Pressure Humidity
    00:00 +4°C° 0.2 mm 6 mps 750 mmHg 73%
    01:00 +5°C° 0 mm 5 mps 750 mmHg 73%
    02:00 +5°C° 0 mm 5 mps 750 mmHg 73%
    03:00 +3°C° 0 mm 5 mps 750 mmHg 74%
    04:00 +3°C° 0.3 mm 5 mps 751 mmHg 76%
    05:00 +4°C° 0.3 mm 4 mps 751 mmHg 79%
    06:00 +4°C° 0.3 mm 4 mps 751 mmHg 81%
    07:00 +4°C° 0.3 mm 4 mps 751 mmHg 80%
    08:00 +5°C° 0.3 mm 4 mps 752 mmHg 79%
    09:00 +5°C° 0.3 mm 5 mps 752 mmHg 79%
    10:00 +3°C° 0.3 mm 5 mps 753 mmHg 72%
    11:00 +3°C° 0.3 mm 6 mps 754 mmHg 65%
    12:00 +3°C° 0.3 mm 6 mps 755 mmHg 58%
    13:00 +3°C° 0 mm 6 mps 755 mmHg 57%
    14:00 +3°C° 0 mm 7 mps 756 mmHg 56%
    15:00 +3°C° 0 mm 7 mps 757 mmHg 55%
    16:00 +2°C° 0.1 mm 7 mps 757 mmHg 56%
    17:00 +2°C° 0.1 mm 7 mps 758 mmHg 57%
    18:00 +2°C° 0.1 mm 6 mps 759 mmHg 58%
    19:00 +2°C° 0 mm 6 mps 760 mmHg 58%
    20:00 +2°C° 0 mm 5 mps 760 mmHg 59%
    21:00 +1°C° 0 mm 4 mps 761 mmHg 60%
    22:00 +1°C° 0 mm 4 mps 761 mmHg 62%
    23:00 +2°C° 0 mm 3 mps 762 mmHg 64%

    Day after tomorrow, 18 January, Friday

    Time Temperature Precipitation Wind Pressure Humidity
    00:00 +2°C° 0 mm 3 mps 762 mmHg 66%
    01:00 +3°C° 0 mm 2 mps 763 mmHg 67%
    02:00 +3°C° 0 mm 2 mps 763 mmHg 69%
    03:00 +3°C° 0 mm 2 mps 763 mmHg 70%
    04:00 +2°C° 0 mm 2 mps 763 mmHg 70%
    05:00 +3°C° 0 mm 1 mps 763 mmHg 71%
    06:00 +3°C° 0 mm 1 mps 763 mmHg 71%
    07:00 +2°C° 0 mm 2 mps 763 mmHg 72%
    08:00 +2°C° 0 mm 2 mps 763 mmHg 73%
    09:00 +2°C° 0 mm 2 mps 764 mmHg 73%
    10:00 +2°C° 0 mm 3 mps 763 mmHg 70%
    11:00 +3°C° 0 mm 3 mps 763 mmHg 67%
    12:00 +4°C° 0 mm 3 mps 763 mmHg 64%
    13:00 +4°C° 0 mm 3 mps 763 mmHg 65%
    14:00 +4°C° 0 mm 3 mps 762 mmHg 66%
    15:00 +3°C° 0 mm 3 mps 762 mmHg 67%
    16:00 +2°C° 0 mm 3 mps 762 mmHg 70%
    17:00 +2°C° 0 mm 3 mps 762 mmHg 72%
    18:00 0°C° 0 mm 4 mps 762 mmHg 74%
    19:00 0°C° 0 mm 4 mps 762 mmHg 73%
    20:00 0°C° 0 mm 4 mps 762 mmHg 72%
    21:00 0°C° 0 mm 4 mps 762 mmHg 70%
    22:00 -1°C° 0 mm 4 mps 761 mmHg 71%
    23:00 -1°C° 0 mm 4 mps 761 mmHg 71%

    19 January, Saturday

    Time Temperature Precipitation Wind Pressure Humidity
    00:00 -1°C° 0 mm 4 mps 761 mmHg 72%
    01:00 -1°C° 0 mm 4 mps 761 mmHg 71%
    02:00 -1°C° 0 mm 4 mps 760 mmHg 71%
    03:00 -2°C° 0 mm 5 mps 760 mmHg 70%
    04:00 -1°C° 0 mm 5 mps 760 mmHg 70%
    05:00 -1°C° 0 mm 5 mps 759 mmHg 70%
    06:00 -1°C° 0 mm 5 mps 759 mmHg 71%
    07:00 -1°C° 0 mm 5 mps 759 mmHg 71%
    08:00 -1°C° 0 mm 5 mps 759 mmHg 70%
    09:00 -1°C° 0 mm 5 mps 759 mmHg 70%
    10:00 0°C° 0 mm 5 mps 759 mmHg 69%
    11:00 +1°C° 0 mm 5 mps 759 mmHg 68%
    12:00 +1°C° 0 mm 5 mps 759 mmHg 66%
    13:00 +1°C° 0 mm 5 mps 759 mmHg 67%
    14:00 +1°C° 0 mm 4 mps 759 mmHg 67%
    15:00 +1°C° 0 mm 4 mps 759 mmHg 67%
    16:00 +1°C° 0 mm 4 mps 759 mmHg 67%
    17:00 +1°C° 0 mm 4 mps 760 mmHg 67%
    18:00 0°C° 0 mm 4 mps 760 mmHg 67%
    19:00 0°C° 0 mm 4 mps 761 mmHg 68%
    20:00 -1°C° 0 mm 4 mps 761 mmHg 69%
    21:00 -1°C° 0 mm 4 mps 761 mmHg 69%
    22:00 -1°C° 0 mm 4 mps 762 mmHg 70%
    23:00 -2°C° 0 mm 4 mps 762 mmHg 71%

    20 January, Sunday

    Time Temperature Precipitation Wind Pressure Humidity
    00:00 -2°C° 0 mm 4 mps 762 mmHg 72%
    01:00 -2°C° 0 mm 4 mps 762 mmHg 72%
    02:00 -2°C° 0 mm 4 mps 762 mmHg 72%
    03:00 -2°C° 0 mm 4 mps 763 mmHg 71%
    04:00 -3°C° 0 mm 4 mps 763 mmHg 69%
    05:00 -3°C° 0 mm 4 mps 763 mmHg 67%
    06:00 -3°C° 0 mm 4 mps 764 mmHg 65%
    07:00 -2°C° 0 mm 4 mps 764 mmHg 63%
    08:00 -2°C° 0 mm 4 mps 765 mmHg 60%
    09:00 -2°C° 0 mm 5 mps 766 mmHg 58%
    10:00 -1°C° 0 mm 5 mps 766 mmHg 55%
    11:00 0°C° 0 mm 4 mps 766 mmHg 51%
    12:00 +1°C° 0 mm 4 mps 766 mmHg 48%
    13:00 +1°C° 0 mm 4 mps 766 mmHg 49%
    14:00 +1°C° 0 mm 4 mps 767 mmHg 50%
    15:00 +1°C° 0 mm 4 mps 767 mmHg 52%
    16:00 0°C° 0 mm 4 mps 767 mmHg 53%
    17:00 -1°C° 0 mm 4 mps 768 mmHg 55%
    18:00 -2°C° 0 mm 4 mps 768 mmHg 57%
    19:00 -2°C° 0 mm 4 mps 769 mmHg 57%
    20:00 -2°C° 0 mm 4 mps 769 mmHg 58%
    21:00 -2°C° 0 mm 4 mps 769 mmHg 58%
    22:00 -2°C° 0 mm 3 mps 770 mmHg 59%
    23:00 -2°C° 0 mm 3 mps 770 mmHg 60%

    21 January, Monday

    Time Temperature Precipitation Wind Pressure Humidity
    00:00 -2°C° 0 mm 3 mps 770 mmHg 62%
    01:00 -2°C° 0 mm 3 mps 770 mmHg 62%
    02:00 -2°C° 0 mm 3 mps 770 mmHg 63%
    03:00 -4°C° 0 mm 3 mps 770 mmHg 63%
    04:00 -4°C° 0 mm 3 mps 770 mmHg 63%
    05:00 -3°C° 0 mm 2 mps 770 mmHg 63%
    06:00 -3°C° 0 mm 2 mps 770 mmHg 63%
    07:00 -2°C° 0 mm 3 mps 770 mmHg 61%
    08:00 -2°C° 0 mm 3 mps 770 mmHg 58%
    09:00 -2°C° 0 mm 3 mps 770 mmHg 56%
    10:00 -1°C° 0 mm 3 mps 769 mmHg 52%
    11:00 0°C° 0 mm 3 mps 769 mmHg 48%
    12:00 +1°C° 0 mm 3 mps 769 mmHg 44%
    13:00 +1°C° 0 mm 3 mps 768 mmHg 44%
    14:00 +1°C° 0 mm 3 mps 767 mmHg 44%
    15:00 +1°C° 0 mm 3 mps 767 mmHg 44%
    16:00 0°C° 0 mm 3 mps 766 mmHg 46%
    17:00 -1°C° 0 mm 3 mps 766 mmHg 49%
    18:00 -2°C° 0 mm 3 mps 765 mmHg 51%
    19:00 -3°C° 0 mm 4 mps 765 mmHg 49%
    20:00 -3°C° 0 mm 4 mps 764 mmHg 47%
    21:00 -3°C° 0 mm 4 mps 763 mmHg 46%
    22:00 -3°C° 0 mm 4 mps 763 mmHg 47%
    23:00 -3°C° 0 mm 4 mps 762 mmHg 48%
    Show more